Weather History for Morrisville, VT

Change the Weather History Date:

Wednesday, October 2, 2013

  Actual Average Record
Temperature  
Mean Temperature 63 °F 51 °F  
Max Temperature 75 °F 63 °F 77 °F (2002)
Min Temperature 50 °F 39 °F 32 °F (1997)
Degree Days  
Heating Degree Days 2 14  
Month to date heating degree days 8 28  
Since 1 July heating degree days 322 360  
Cooling Degree Days 0 0  
Month to date cooling degree days 0 0  
Year to date cooling degree days 401 265  
Growing Degree Days 12 (Base 50)    
Moisture  
Dew Point 51 °F    
Average Humidity 69    
Maximum Humidity 96    
Minimum Humidity 41    
Precipitation  
Precipitation 0.00 in 0.11 in 0.52 in (2011)
Month to date precipitation 0.00 0.22  
Year to date precipitation 33.04 27.35  
Sea Level Pressure  
Sea Level Pressure 29.90 in    
Wind  
Wind Speed 3 mph (West)    
Max Wind Speed 14 mph    
Max Gust Speed 20 mph    
Visibility 6 miles    
Events Fog    
T = Trace of Precipitation, MM = Missing Value Source: NWS Daily Summary

Daily Weather History Graph

Daily Weather History Graph

Search for Another Location

Airport:

Trip Planner

Search our weather history database for the weather conditions in past years. The results will help you decide how hot, cold, wet, or windy it might be!

Date:

Astronomy

Oct. 02, 2013 Rise Set
Actual Time 6:49 AM EDT 6:28 PM EDT
Civil Twilight 6:20 AM EDT 6:57 PM EDT
Nautical Twilight 5:46 AM EDT 7:31 PM EDT
Astronomical Twilight 5:12 AM EDT 8:05 PM EDT
Moon 4:15 AM EDT 5:06 PM EDT
Length of Visible Light 12h 37m
Length of Day
11h 39m
Waning Crescent, 6% of the Moon is Illuminated
Oct 2
Waning Crescent
Oct 4
New
Oct 11
First Quarter
Oct 18
Full
Oct 26
Last Quarter

Hourly Weather History & Observations

Time (EDT) Temp. Dew Point Humidity Pressure Visibility Wind Dir Wind Speed Gust Speed Precip Events Conditions
12:54 AM 50.0 °F 48.9 °F 96% 29.91 in 0.2 mi Calm Calm - N/A Fog Fog
1:54 AM 51.1 °F 50.0 °F 96% 29.91 in 0.2 mi Calm Calm - N/A Fog Fog
2:54 AM 51.1 °F 50.0 °F 96% 29.90 in 0.2 mi Calm Calm - N/A Fog Fog
3:54 AM 51.1 °F 50.0 °F 96% 29.89 in 0.2 mi Calm Calm - 0.01 in Fog Fog
4:54 AM 51.1 °F 50.0 °F 96% 29.89 in 0.5 mi Calm Calm - N/A Fog Fog
5:54 AM 51.1 °F 50.0 °F 96% 29.89 in 0.2 mi Calm Calm - N/A Fog Fog
6:54 AM 50.0 °F 48.9 °F 96% 29.89 in 0.2 mi Calm Calm - N/A Fog Fog
7:26 AM 50.0 °F 50.0 °F 100% 29.88 in 1.2 mi Calm Calm - N/A   Overcast
7:36 AM 51.8 °F 50.0 °F 94% 29.89 in 0.8 mi Calm Calm - N/A   Overcast
7:44 AM 51.8 °F 50.0 °F 94% 29.89 in 1.2 mi Calm Calm - N/A   Overcast
7:52 AM 51.8 °F 50.0 °F 94% 29.89 in 2.5 mi Calm Calm - N/A   Overcast
7:54 AM 51.1 °F 50.0 °F 96% 29.90 in 2.5 mi Calm Calm - N/A   Overcast
8:03 AM 51.8 °F 51.8 °F 100% 29.88 in 4.0 mi Calm Calm - N/A   Overcast
8:18 AM 51.8 °F 51.8 °F 100% 29.88 in 5.0 mi South 3.5 mph - N/A   Overcast
8:54 AM 53.1 °F 51.1 °F 93% 29.90 in 8.0 mi Calm Calm - N/A   Overcast
9:54 AM 55.0 °F 53.1 °F 93% 29.91 in 9.0 mi Calm Calm - N/A   Overcast
10:54 AM 55.9 °F 53.1 °F 90% 29.91 in 8.0 mi North 3.5 mph - N/A   Overcast
11:52 AM 60.8 °F 55.4 °F 82% 29.89 in 10.0 mi Calm Calm - N/A   Overcast
11:54 AM 60.1 °F 57.0 °F 90% 29.89 in 10.0 mi Calm Calm - N/A   Overcast
12:54 PM 68.0 °F 57.9 °F 70% 29.88 in 10.0 mi SSW 6.9 mph - N/A   Overcast
1:54 PM 72.0 °F 57.9 °F 61% 29.85 in 10.0 mi Variable 3.5 mph - N/A   Overcast
2:54 PM 73.9 °F 54.0 °F 50% 29.85 in 10.0 mi West 8.1 mph - N/A   Scattered Clouds
3:54 PM 73.9 °F 53.1 °F 48% 29.85 in 10.0 mi NW 10.4 mph 19.6 mph N/A   Partly Cloudy
4:54 PM 73.9 °F 50.0 °F 43% 29.86 in 10.0 mi NNW 10.4 mph - N/A   Mostly Cloudy
5:54 PM 71.1 °F 46.9 °F 42% 29.87 in 10.0 mi NNW 5.8 mph - N/A   Clear
6:54 PM 64.0 °F 48.0 °F 56% 29.90 in 10.0 mi Calm Calm - N/A   Clear
7:54 PM 57.9 °F 48.9 °F 72% 29.92 in 10.0 mi South 3.5 mph - N/A   Clear
8:54 PM 64.0 °F 46.9 °F 54% 29.93 in 10.0 mi SW 4.6 mph - N/A   Clear
9:54 PM 64.9 °F 48.9 °F 56% 29.95 in 10.0 mi WNW 3.5 mph - N/A   Clear
10:54 PM 66.9 °F 48.0 °F 51% 29.97 in 10.0 mi WNW 9.2 mph - N/A   Clear
11:54 PM 66.9 °F 45.0 °F 45% 29.98 in 10.0 mi WNW 3.5 mph - N/A   Clear